Погода в Свободном

Россия / Амурская область     51°22′33″N   128°08′02″E
темп.,
°C
ветер,
м/с
пор.,
м/с
влажн.,
%
обл.,
%
осадки,
мм/ч
давл.,
гПа
погр.,
м
28 ноября, вс
вс2800:00−12ююв3695100 0.0 1027131
03:00−12ююв2496100 0.0 102689
06:00−13ю2397100 0.1 102571
09:00−13в1196100 0.2 102444
12:00−10с2388100 0.1 1023339
15:00−8с3589100 0.1 1023484
18:00−9ссз369592 0.3 1023266
21:00−8ссз3892100 0.5 1022387
29 ноября, пн
пн2900:00−10сз5978100 0.0 1022318
03:00−11сз51074100 0.0 1023403
06:00−14сз49824 0.0 1024168
09:00−17зсз49865 0.0 1025178
12:00−12сз47710 0.0 1025426
15:00−11зсз247817 0.0 102593
18:00−18зсз2290100 0.0 102610
21:00−16юз1192100 0.0 102611
30 ноября, вт
вт3000:00−15ю1192100 0.0 102517
03:00−16юв1196100 0.0 102415
06:00−16вюв1196100 0.0 102330
09:00−17в119748 0.0 102312
12:00−13св118725 0.0 1022172
15:00−12св119155 0.0 102141
18:00−16с229788 0.0 102118
21:00−18ссз35955 0.0 102158
1 декабря, ср
ср100:00−18ссз36925 0.0 102076
03:00−18ссз49875 0.0 1018147
06:00−18ссз48885 0.0 1017119
09:00−18сз410875 0.0 1016201
12:00−13ссз611740 0.0 1013499
15:00−13с48740 0.0 1011286
18:00−18сз36905 0.0 101074
21:00−19ссз37885 0.0 100888
2 декабря, чт
чт200:00−20сз35874 0.0 100766
03:00−20сз47842 0.0 100680
06:00−20сз48843 0.0 1005121
09:00−20сз410905 0.0 1006165
12:00−14сз610794 0.0 1004438
15:00−12сз59765 0.0 1004414
18:00−16зсз49832 0.0 1006141
21:00−16зсз49832 0.0 1007131